Regional Weather Roundup
Issued by NWS

Home | Current Version | Previous Version | Graphics & Text | Print | Product List | Glossary On
Versions: 1 2 3 4 5 6 7 8 9 10 11 12 13 14 15 16 17 18 19 20 21 22 23 24 25 26 27 28 29 30 31 32 33 34 35 36 37 38 39 40 41 42 43 44 45 46 47 48 49 50
000
ASUS43 KDMX 252301
RWRIA

WEATHER ROUNDUP FOR IOWA
NATIONAL WEATHER SERVICE DES MOINES IA
600 PM CDT TUE JUL 25 2017

NOTE: "FAIR" INDICATES FEW OR NO CLOUDS BELOW 12,000 FEET WITH NO
SIGNIFICANT WEATHER AND/OR OBSTRUCTIONS TO VISIBILITY.

* - THESE STATIONS ARE NOT NWS STATIONS...THUS NOT UNDER NWS
QUALITY CONTROL.  THEY ALSO DO NOT REPORT WEATHER SUCH
AS PRECIPITATION OR FOG.

IAZ001>003-012>014-020>022-031>034-043>046-260000-
   NORTHWEST IOWA

CITY           SKY/WX    TMP DP  RH WIND       PRES   REMARKS
CARROLL *      SUNNY     88  75  66 S14G20    29.95F HX  97
CHEROKEE *     SUNNY     89  74  61 S21       29.92R HX  97
DENISON *      SUNNY     88  75  66 S14G21    29.95F HX  97
ORANGE CITY *  SUNNY     90  72  55 S10G21    29.92R HX  96
SHELDON *      CLOUDY    88  73  62 S14G22    29.90R HX  96
SIOUX CITY     CLOUDY    92  72  51 S15G26    29.89S HX  99
SPENCER        CLOUDY    88  72  58 S10       29.93R HX  94
STORM LAKE *   SUNNY     88  75  66 S15G24    29.95R HX  97
$$

IAZ055>058-069>071-079>083-090>094-260000-
   SOUTHWEST IOWA

CITY           SKY/WX    TMP DP  RH WIND       PRES   REMARKS
ATLANTIC *     SUNNY     90  75  62 MISG      29.96F HX 100
AUDUBON *      SUNNY     90  75  62 S15G22    29.98F HX 100
CLARINDA *     SUNNY     90  79  70 S8G16     30.00F HX 105
COUNCIL BLFS * SUNNY     90  77  66 SE20G25   29.94F HX 102
CRESTON *      SUNNY     90  73  58 S14G20    30.02F HX  98
HARLAN  *      SUNNY     90  75  62 S16G25    29.98F HX 100
LAMONI         SUNNY     88  75  65 S9        30.03F HX  97
RED OAK *      SUNNY     90  77  66 S13G20    29.97F HX 102
SHENANDOAH *   SUNNY     91  73  55 SE12G18   29.97F HX 100
$$

IAZ047>049-059>061-072>074-084-260000-
   CENTRAL IOWA

CITY           SKY/WX    TMP DP  RH WIND       PRES   REMARKS
AMES           SUNNY     88  75  65 SE14G21   29.96F HX  97
ANKENY *       SUNNY     91  73  55 SE12G18   29.97F HX 100
BOONE *        SUNNY     90  75  62 SE10      29.96F HX 100
CHARITON *     SUNNY     91  72  52 SE14      30.01F HX  98
DES MOINES     MOSUNNY   94  71  47 S15       29.96F HX 101
GRINNELL*      SUNNY     86  69  55 SE13      30.03F HX  90
KNOXVILLE *    SUNNY     90  70  51 S12       29.99F HX  95
MARSHALLTOWN   SUNNY     86  70  58 SE16      29.99F HX  90
NEWTON *       SUNNY     88  73  62 SE10      30.00F HX  96
PELLA *        SUNNY     91  68  46 SE10      30.02F HX  95
PERRY *          N/A     89  73  59 S9        29.96F HX  97
$$

IAZ004>006-015-016-023>025-035-036-260000-
   NORTH CENTRAL IOWA

CITY           SKY/WX    TMP DP  RH WIND       PRES   REMARKS
ALGONA *       CLOUDY    88  73  62 S16       29.96R HX  96
CLARION *      CLOUDY    86  75  70 S14G22    29.97  HX  95
ESTHERVILLE    CLOUDY    83  73  72 S9        29.93R HX  89
FORT DODGE *   SUNNY     90  72  55 S13G20    29.96S HX  96
MASON CITY     CLOUDY    83  71  67 S16       29.99F HX  87
FOREST CITY *    N/A     84  72  65 S14       29.97R HX  89
WEBSTER CITY * SUNNY     88  73  62 SE13G20   29.95F HX  96
IOWA FALLS *     N/A     85  72  63 SE14G21   30.01F HX  91
$$

IAZ007>011-017>019-026>030-037>042-050>054-066-260000-
   NORTHEAST IOWA

CITY           SKY/WX    TMP DP  RH WIND       PRES   REMARKS
CEDAR RAPIDS   SUNNY     81  71  71 S14G20    30.05F HX  85
CHARLES CITY * SUNNY     81  72  74 S13G22    30.01F HX  84
DECORAH *      SUNNY     79  68  69 S10G18    30.02F HX  81
DUBUQUE        SUNNY     77  66  68 S16       30.09F
MONTICELLO *   SUNNY     81  70  69 SE13      30.06F HX  84
OELWEIN *      SUNNY     81  70  69 S15G22    30.04F HX  84
WATERLOO       SUNNY     82  68  62 S16G26    29.99F HX  85
$$

IAZ064-065-067-068-078-260000-
   EAST CENTRAL IOWA

CITY           SKY/WX    TMP DP  RH WIND       PRES   REMARKS
DAVENPORT      SUNNY     80  68  66 S7        30.11F HX  83
IOWA CITY      SUNNY     83  69  62 SE14      30.07F HX  86
MUSCATINE *    SUNNY     84  66  54 SE10G16   30.08S HX  86
QUAD CITIES    SUNNY     81  67  62 SE10      30.09F HX  83
$$

IAZ062-063-075>077-085>089-095>099-260000-
   SOUTHEAST IOWA

CITY           SKY/WX    TMP DP  RH WIND       PRES   REMARKS
BURLINGTON     SUNNY     84  71  65 SE8       30.08F HX  89
FAIRFIELD *    SUNNY     88  66  48 SE14      30.05F HX  90
FORT MADISON * SUNNY     84  70  61 SE8       30.09S HX  88
KEOKUK *       SUNNY     86  68  54 E10       30.06F HX  89
OSKALOOSA *      N/A     88  66  48 SE12G17   30.03F HX  90
OTTUMWA        SUNNY     90  67  46 SE14      30.03F HX  93
WASHINGTON *   SUNNY     84  72  65 SE12      30.07F HX  89
$$

ABBREVIATIONS USED IN REMARKS
   TC - TEMPERATURES IN CELSIUS
  WCI - WIND CHILL INDEX
   HX - HEAT INDEX
  VSB - VISIBILITY
$$





USA.gov is the U.S. government's official web portal to all federal, state and local government web resources and services.